This is the latest recevied weather packets stored in our database for station/object VO2AGO. If no packets are shown the sender has not sent any weather packets the latest 10 day(s).
| Time | Temp. | Humidity | Pressure | Rain* | Wind** | Luminosity | Snow |
|---|---|---|---|---|---|---|---|
| 1777836050 | 7.78° C | - | - | - | 0 m/s | 1740 W/m² | - |
| 1777835601 | 6.67° C | - | - | - | 0 m/s | 1407 W/m² | - |
| 1777835150 | 7.78° C | - | - | - | 0 m/s | 1702 W/m² | - |
| 1777834700 | 7.78° C | - | - | - | 0 m/s | 1660 W/m² | - |
| 1777834250 | 5.56° C | - | - | - | 0 m/s | 1121 W/m² | - |
| 1777833801 | 5° C | - | - | - | 0 m/s | 1928 W/m² | - |
| 1777833351 | 4.44° C | - | - | - | 0 m/s | 1205 W/m² | - |
| 1777832900 | 3.89° C | - | - | - | 0 m/s | 1047 W/m² | - |
| 1777832450 | 3.89° C | - | - | - | 0 m/s | 930 W/m² | - |
| 1777832000 | 4.44° C | - | - | - | 0 m/s | 890 W/m² | - |
| 1777831550 | 5.56° C | - | - | - | 0 m/s | 987 W/m² | - |
| 1777831100 | 5.56° C | - | - | - | 0 m/s | 1377 W/m² | - |
| 1777830651 | 6.11° C | - | - | - | 0 m/s | 1980 W/m² | - |
| 1777830201 | 6.11° C | - | - | - | 0 m/s | 1171 W/m² | - |
| 1777829751 | 5.56° C | - | - | - | 0 m/s | 1258 W/m² | - |
| 1777829299 | 5° C | - | - | - | 0 m/s | 1454 W/m² | - |
| 1777828850 | 5.56° C | - | - | - | 0 m/s | 1314 W/m² | - |
| 1777828400 | 6.67° C | - | - | - | 0 m/s | 1814 W/m² | - |
| 1777827950 | 5.56° C | - | - | - | 0 m/s | 1961 W/m² | - |
| 1777827500 | 5.56° C | - | - | - | 0 m/s | 1701 W/m² | - |
| 1777827051 | 6.67° C | - | - | - | 0 m/s | 1343 W/m² | - |
| 1777826601 | 6.11° C | - | - | - | 0 m/s | 1685 W/m² | - |
| 1777826150 | 4.44° C | - | - | - | 0 m/s | 1845 W/m² | - |
| 1777825700 | 3.33° C | - | - | - | 0 m/s | 1479 W/m² | - |
| 1777825250 | 3.33° C | - | - | - | 0 m/s | 1249 W/m² | - |
* Rain since midnight (hover to see other rain measurements)
** Current wind speed in m/s (hover to see current wind gust speed)